Gainesville, GA

12:47 AM EDT on August 17, 2017 (GMT -0400)
Gilmer Memorial

Weather History for KGVL - January, 2012

Change the Weather History Date:

Friday, January 27, 2012

  Actual Average Record
Temperature  
Mean Temperature 50 °F 42 °F  
Max Temperature 60 °F 51 °F 72 °F (1999)
Min Temperature 39 °F 34 °F 3 °F (1940)
Degree Days  
Heating Degree Days 14 23  
Month to date heating degree days 637  
Since 1 July heating degree days 1833  
Moisture  
Dew Point 45 °F    
Average Humidity 79    
Maximum Humidity 100    
Minimum Humidity 52    
Precipitation  
Precipitation 0.07 in 0.19 in 1.20 in (1998)
Month to date precipitation 4.24  
Year to date precipitation 4.24  
Snow  
Snow 0.00 in - - ()
Month to date snowfall  
Since 1 July snowfall  
Snow Depth -    
Sea Level Pressure  
Sea Level Pressure 29.85 in    
Wind  
Wind Speed 11 mph (West)    
Max Wind Speed 17 mph    
Max Gust Speed 24 mph    
Visibility 10 miles    
Events Rain    
T = Trace of Precipitation, MM = Missing Value Source: NWS Daily Summary

Daily Weather History Graph

Daily Weather History Graph

Search for Another Location

Airport or City:

Trip Planner

Search our weather history database for the weather conditions in past years. The results will help you decide how hot, cold, wet, or windy it might be!

Date:

Astronomy

Jan. 27, 2012 Rise Set
Actual Time 7:36 AM EST 5:59 PM EST
Civil Twilight 7:09 AM EST 6:26 PM EST
Nautical Twilight 6:39 AM EST 6:56 PM EST
Astronomical Twilight 6:09 AM EST 7:26 PM EST
Moon 9:45 AM EST (1/27) 10:33 PM EST (1/27)
Length of Visible Light 11h 16m
Length of Day
10h 23m
Waxing Crescent, 19% of the Moon is Illuminated
Jan 27
Waxing Crescent
Jan 30
First Quarter
Feb 7
Full
Feb 14
Last Quarter
Feb 21
New

Hourly Weather History & Observations

Time (EST) Temp. Windchill Dew Point Humidity Pressure Visibility Wind Dir Wind Speed Gust Speed Precip Events Conditions
12:39 AM 60.8 °F - 55.4 °F 82% 29.71 in 10.0 mi SSW 9.2 mph 19.6 mph N/A   Mostly Cloudy
12:53 AM 60.1 °F - 55.0 °F 83% 29.69 in 10.0 mi SSW 12.7 mph 21.9 mph N/A   Scattered Clouds
1:53 AM 59.0 °F - 54.0 °F 83% 29.68 in 10.0 mi SW 6.9 mph 17.3 mph N/A   Mostly Cloudy
2:50 AM 57.2 °F - 55.4 °F 94% 29.73 in 10.0 mi WNW 16.1 mph 23.0 mph 0.02 in Rain Light Rain
2:53 AM 55.9 °F - 53.1 °F 90% 29.71 in 10.0 mi WNW 16.1 mph 23.0 mph 0.03 in Rain Light Rain
3:07 AM 53.6 °F - 50.0 °F 88% 29.73 in 10.0 mi West 12.7 mph - 0.00 in Rain Light Rain
3:53 AM 52.0 °F - 50.0 °F 93% 29.72 in 8.0 mi West 10.4 mph - 0.02 in Rain Light Rain
4:53 AM 51.1 °F - 50.0 °F 96% 29.71 in 10.0 mi WSW 8.1 mph - 0.02 in Rain Light Rain
5:18 AM 51.8 °F - 50.0 °F 94% 29.73 in 10.0 mi West 10.4 mph - N/A   Mostly Cloudy
5:28 AM 51.8 °F - 51.8 °F 100% 29.74 in 10.0 mi West 10.4 mph - N/A   Overcast
5:42 AM 51.8 °F - 50.0 °F 94% 29.74 in 10.0 mi West 10.4 mph - N/A   Overcast
5:53 AM 52.0 °F - 50.0 °F 93% 29.73 in 10.0 mi West 12.7 mph - N/A   Overcast
6:13 AM 51.8 °F - 48.2 °F 88% 29.76 in 10.0 mi West 12.7 mph 19.6 mph N/A   Overcast
6:51 AM 51.8 °F - 48.2 °F 88% 29.78 in 10.0 mi West 15.0 mph 19.6 mph N/A   Mostly Cloudy
6:53 AM 51.1 °F - 48.0 °F 89% 29.77 in 10.0 mi West 12.7 mph - N/A   Mostly Cloudy
7:17 AM 51.8 °F - 48.2 °F 88% 29.79 in 10.0 mi West 15.0 mph - N/A   Overcast
7:49 AM 50.0 °F - 46.4 °F 87% 29.80 in 10.0 mi West 16.1 mph 21.9 mph N/A   Mostly Cloudy
8:53 AM 48.9 °F - 46.0 °F 90% 29.83 in 10.0 mi West 17.3 mph 24.2 mph 0.00 in   Overcast
9:53 AM 48.9 °F - 44.1 °F 83% 29.87 in 10.0 mi West 13.8 mph 23.0 mph N/A   Mostly Cloudy
11:53 AM 50.0 °F - 41.0 °F 71% 29.92 in 10.0 mi WNW 15.0 mph 18.4 mph N/A   Mostly Cloudy
12:50 PM 51.8 °F - 39.2 °F 62% 29.94 in 10.0 mi NW 9.2 mph - N/A   Scattered Clouds
12:53 PM 51.1 °F - 39.0 °F 63% 29.92 in 10.0 mi NW 9.2 mph - N/A   Partly Cloudy
1:53 PM 53.1 °F - 37.9 °F 57% 29.92 in 10.0 mi West 6.9 mph 17.3 mph N/A   Partly Cloudy
2:53 PM 54.0 °F - 37.9 °F 55% 29.95 in 10.0 mi West 15.0 mph 21.9 mph N/A   Partly Cloudy
3:53 PM 54.0 °F - 37.0 °F 53% 29.96 in 10.0 mi West 13.8 mph 20.7 mph N/A   Clear
4:53 PM 53.1 °F - 36.0 °F 52% 29.97 in 10.0 mi West 13.8 mph 23.0 mph N/A   Clear
5:53 PM 51.1 °F - 36.0 °F 56% 30.00 in 10.0 mi West 9.2 mph - N/A   Clear
6:53 PM 48.9 °F - 36.0 °F 61% 30.02 in 10.0 mi WNW 9.2 mph - N/A   Clear
7:53 PM 48.0 °F - 36.0 °F 63% 30.04 in 10.0 mi West 5.8 mph - N/A   Clear
8:53 PM 46.0 °F 42.5 °F 36.0 °F 68% 30.05 in 10.0 mi WNW 6.9 mph - N/A   Clear
9:53 PM 44.1 °F - 35.1 °F 71% 30.04 in 10.0 mi Calm Calm - N/A   Clear
10:53 PM 41.0 °F 39.0 °F 35.1 °F 79% 30.05 in 10.0 mi West 3.5 mph - N/A   Clear
11:53 PM 39.0 °F 36.8 °F 35.1 °F 86% 30.04 in 10.0 mi WNW 3.5 mph - N/A   Clear